Regional Weather Roundup
Issued by NWS

Home | Current Version | Previous Version | Graphics & Text | Print | Product List | Glossary On
Versions: 1 2 3 4 5 6 7 8 9 10 11 12 13 14 15 16 17 18 19 20 21 22 23 24 25 26 27 28 29 30 31 32 33 34 35 36 37 38 39 40 41 42 43 44 45 46 47 48 49 50
000
ASUS43 KIND 290459
RWRIN

WEATHER ROUNDUP FOR INDIANA
NATIONAL WEATHER SERVICE INDIANAPOLIS IN
100 AM EDT FRI JUL 29 2016

NOTE: "FAIR" INDICATES FEW OR NO CLOUDS BELOW 12,000 FEET WITH NO
SIGNIFICANT WEATHER AND/OR OBSTRUCTIONS TO VISIBILITY.

* - STATION DOES NOT REPORT WEATHER SUCH AS PRECIPITATION OR FOG.

+ - STATION NOT QUALITY CONTROLLED BY THE NATIONAL WEATHER SERVICE.
    USE DATA WITH CAUTION...ESPECIALLY DEWPOINT AND RELATIVE
    HUMIDITY OBSERVATIONS.

INZ001>003-010>013-019-020-290600-
NORTHWEST INDIANA

CITY           SKY/WX    TMP DP  RH WIND       PRES   REMARKS
KNOX *+        CLEAR     64  63  94 CALM      29.92S
MONTICELLO +   CLEAR     70  64  80 NE3       29.91R
RENSSELAER +   CLEAR     70  68  94 CALM      29.92S

$$

LMZ046-743>745-290600-
SOUTHERN LAKE MICHIGAN

STATION/POSITION TIME  TEMP    WIND        PRES    WAVE
                       AIR SEA DIR/SP/G            HT
                 (UTC) (F)     (DEG/KT/KT) (MB)    (FT)
BURNS HARBOR     0401   75      CALM  /  7 1013.2F
MICHIGAN CITY    0400   71      60/  2/  3   N/A
5NW MICH CITY    0400   74 77  110/  6/  8   N/A     2

$$

INZ004-005-014>016-021>024-290600-
NORTH CENTRAL INDIANA

CITY           SKY/WX    TMP DP  RH WIND       PRES   REMARKS
GOSHEN         RAIN      71  67  87 N5        29.92S FOG
SOUTH BEND     CLEAR     69  67  93 CALM      29.93S

$$

INZ006>009-017-018-025>027-290600-
NORTHEAST INDIANA

CITY           SKY/WX    TMP DP  RH WIND       PRES   REMARKS
ANGOLA *+      CLEAR     72  63  73 CALM      29.93S
FORT WAYNE     TSTM      73  69  87 NE12      29.92R

$$

INZ028-029-035-036-043>045-051>053-290600-
WEST CENTRAL INDIANA

CITY           SKY/WX    TMP DP  RH WIND       PRES   REMARKS
CRAWFORDSVL +  MOCLDY    66  66 100 CALM      29.93R
GREENCASTLE +  CLEAR     68  68 100 CALM      29.93S FOG
LAFAYETTE      CLEAR     70  70 100 CALM      29.91R
TERRE HAUTE    CLEAR     72  69  90 CALM      29.92R

$$

INZ030>032-037>040-046>048-054>057-064-065-290600-
CENTRAL INDIANA

CITY           SKY/WX    TMP DP  RH WIND       PRES   REMARKS
INDIANAPOLIS   PTCLDY    73  70  90 W7        29.92S
-EAGLE CREEK   CLEAR     75  69  81 CALM      29.92R
KOKOMO *+      CLEAR     66  61  82 SW5       29.92S
SHELBYVILLE    CLEAR     69  66  90 CALM      29.92R
ZIONSVILLE +   CLEAR     67  66  96 CALM      29.93S

$$

INZ033-034-041-042-049-050-058-059-290600-
EAST CENTRAL INDIANA

CITY           SKY/WX    TMP DP  RH WIND       PRES   REMARKS
MUNCIE         PTCLDY    74  68  81 W7        29.92S

$$

INZ060-061-067>069-081>083-085>088-290600-
SOUTHWEST INDIANA

CITY           SKY/WX    TMP DP  RH WIND       PRES   REMARKS
EVANSVILLE     CLOUDY    72  69  90 S3        29.91F
HUNTINGBURG *+ PTCLDY    70  64  83 CALM      29.91F

$$

INZ062-063-066-070>080-084-089>092-290600-
SOUTH CENTRAL AND SOUTHEAST INDIANA

CITY           SKY/WX    TMP DP  RH WIND       PRES   REMARKS
BLOOMINGTON    CLEAR     68  65  90 CALM      29.93S
MADISON *+     CLEAR     70  68  94 CALM      29.95R
SEYMOUR +      FOG       72  72 100 CALM      29.93R VSB 1/4

$$




USA.gov is the U.S. government's official web portal to all federal, state and local government web resources and services.